<?xml version="1.0"?>
<gpx xmlns="http://www.topografix.com/GPX/1/1" xmlns:xsi="http://www.w3.org/2001/XMLSchema-instance" version="1.1" creator="GPX RubyGem 1.0.0 -- http://dougfales.github.io/gpx/" xsi:schemaLocation="http://www.topografix.com/GPX/1/1 http://www.topografix.com/GPX/1/1/gpx.xsd">
  <metadata>
    <name/>
    <time>2026-05-08T04:49:52+00:00</time>
    <bound minlat="90.0" minlon="180.0" maxlat="-90.0" maxlon="-180.0"/>
  </metadata>
  <trk>
    <name/>
    <trkseg>
      <trkpt lat="43.276994" lon="0.084821">
        <time>1970-01-01T00:00:00+00:00</time>
        <ele>277.0</ele>
      </trkpt>
      <trkpt lat="43.276907" lon="0.084771">
        <time>1970-01-01T00:00:00+00:00</time>
        <ele>278.0</ele>
      </trkpt>
      <trkpt lat="43.276745" lon="0.084708">
        <time>1970-01-01T00:00:00+00:00</time>
        <ele>278.0</ele>
      </trkpt>
      <trkpt lat="43.27654" lon="0.084673">
        <time>1970-01-01T00:00:00+00:00</time>
        <ele>278.0</ele>
      </trkpt>
      <trkpt lat="43.276534" lon="0.084084">
        <time>1970-01-01T00:00:00+00:00</time>
        <ele>277.0</ele>
      </trkpt>
      <trkpt lat="43.276466" lon="0.084116">
        <time>1970-01-01T00:00:00+00:00</time>
        <ele>277.0</ele>
      </trkpt>
      <trkpt lat="43.276085" lon="0.08417">
        <time>1970-01-01T00:00:00+00:00</time>
        <ele>277.0</ele>
      </trkpt>
      <trkpt lat="43.275946" lon="0.084155">
        <time>1970-01-01T00:00:00+00:00</time>
        <ele>278.0</ele>
      </trkpt>
      <trkpt lat="43.275541" lon="0.083996">
        <time>1970-01-01T00:00:00+00:00</time>
        <ele>278.0</ele>
      </trkpt>
      <trkpt lat="43.274771" lon="0.083829">
        <time>1970-01-01T00:00:00+00:00</time>
        <ele>280.0</ele>
      </trkpt>
      <trkpt lat="43.274288" lon="0.083783">
        <time>1970-01-01T00:00:00+00:00</time>
        <ele>280.0</ele>
      </trkpt>
      <trkpt lat="43.273368" lon="0.083909">
        <time>1970-01-01T00:00:00+00:00</time>
        <ele>280.0</ele>
      </trkpt>
      <trkpt lat="43.272726" lon="0.083925">
        <time>1970-01-01T00:00:00+00:00</time>
        <ele>281.0</ele>
      </trkpt>
      <trkpt lat="43.272259" lon="0.083778">
        <time>1970-01-01T00:00:00+00:00</time>
        <ele>280.0</ele>
      </trkpt>
      <trkpt lat="43.271818" lon="0.083537">
        <time>1970-01-01T00:00:00+00:00</time>
        <ele>279.0</ele>
      </trkpt>
      <trkpt lat="43.271636" lon="0.083519">
        <time>1970-01-01T00:00:00+00:00</time>
        <ele>279.0</ele>
      </trkpt>
      <trkpt lat="43.271449" lon="0.083556">
        <time>1970-01-01T00:00:00+00:00</time>
        <ele>279.0</ele>
      </trkpt>
      <trkpt lat="43.271023" lon="0.083788">
        <time>1970-01-01T00:00:00+00:00</time>
        <ele>280.0</ele>
      </trkpt>
      <trkpt lat="43.270601" lon="0.083976">
        <time>1970-01-01T00:00:00+00:00</time>
        <ele>280.0</ele>
      </trkpt>
      <trkpt lat="43.270401" lon="0.084041">
        <time>1970-01-01T00:00:00+00:00</time>
        <ele>280.0</ele>
      </trkpt>
      <trkpt lat="43.270221" lon="0.084155">
        <time>1970-01-01T00:00:00+00:00</time>
        <ele>281.0</ele>
      </trkpt>
      <trkpt lat="43.270111" lon="0.084167">
        <time>1970-01-01T00:00:00+00:00</time>
        <ele>281.0</ele>
      </trkpt>
      <trkpt lat="43.269765" lon="0.084375">
        <time>1970-01-01T00:00:00+00:00</time>
        <ele>282.0</ele>
      </trkpt>
      <trkpt lat="43.269328" lon="0.084557">
        <time>1970-01-01T00:00:00+00:00</time>
        <ele>283.0</ele>
      </trkpt>
      <trkpt lat="43.269017" lon="0.08471">
        <time>1970-01-01T00:00:00+00:00</time>
        <ele>283.0</ele>
      </trkpt>
      <trkpt lat="43.268602" lon="0.084782">
        <time>1970-01-01T00:00:00+00:00</time>
        <ele>284.0</ele>
      </trkpt>
      <trkpt lat="43.268295" lon="0.084774">
        <time>1970-01-01T00:00:00+00:00</time>
        <ele>284.0</ele>
      </trkpt>
      <trkpt lat="43.268217" lon="0.084798">
        <time>1970-01-01T00:00:00+00:00</time>
        <ele>284.0</ele>
      </trkpt>
      <trkpt lat="43.267957" lon="0.084961">
        <time>1970-01-01T00:00:00+00:00</time>
        <ele>284.0</ele>
      </trkpt>
      <trkpt lat="43.267494" lon="0.085129">
        <time>1970-01-01T00:00:00+00:00</time>
        <ele>285.0</ele>
      </trkpt>
      <trkpt lat="43.267143" lon="0.085222">
        <time>1970-01-01T00:00:00+00:00</time>
        <ele>285.0</ele>
      </trkpt>
      <trkpt lat="43.267068" lon="0.085223">
        <time>1970-01-01T00:00:00+00:00</time>
        <ele>285.0</ele>
      </trkpt>
      <trkpt lat="43.266956" lon="0.085191">
        <time>1970-01-01T00:00:00+00:00</time>
        <ele>285.0</ele>
      </trkpt>
      <trkpt lat="43.266505" lon="0.08536">
        <time>1970-01-01T00:00:00+00:00</time>
        <ele>284.0</ele>
      </trkpt>
      <trkpt lat="43.266078" lon="0.085452">
        <time>1970-01-01T00:00:00+00:00</time>
        <ele>286.0</ele>
      </trkpt>
      <trkpt lat="43.265203" lon="0.085805">
        <time>1970-01-01T00:00:00+00:00</time>
        <ele>286.0</ele>
      </trkpt>
      <trkpt lat="43.265096" lon="0.08587">
        <time>1970-01-01T00:00:00+00:00</time>
        <ele>287.0</ele>
      </trkpt>
      <trkpt lat="43.264885" lon="0.086018">
        <time>1970-01-01T00:00:00+00:00</time>
        <ele>287.0</ele>
      </trkpt>
      <trkpt lat="43.264772" lon="0.08618">
        <time>1970-01-01T00:00:00+00:00</time>
        <ele>287.0</ele>
      </trkpt>
      <trkpt lat="43.26474" lon="0.086329">
        <time>1970-01-01T00:00:00+00:00</time>
        <ele>287.0</ele>
      </trkpt>
      <trkpt lat="43.264705" lon="0.086282">
        <time>1970-01-01T00:00:00+00:00</time>
        <ele>287.0</ele>
      </trkpt>
      <trkpt lat="43.264643" lon="0.08627">
        <time>1970-01-01T00:00:00+00:00</time>
        <ele>287.0</ele>
      </trkpt>
      <trkpt lat="43.264442" lon="0.086302">
        <time>1970-01-01T00:00:00+00:00</time>
        <ele>287.0</ele>
      </trkpt>
      <trkpt lat="43.264131" lon="0.086231">
        <time>1970-01-01T00:00:00+00:00</time>
        <ele>286.0</ele>
      </trkpt>
      <trkpt lat="43.263968" lon="0.086231">
        <time>1970-01-01T00:00:00+00:00</time>
        <ele>286.0</ele>
      </trkpt>
      <trkpt lat="43.263968" lon="0.086231">
        <time>1970-01-01T00:00:00+00:00</time>
        <ele>286.0</ele>
      </trkpt>
      <trkpt lat="43.264131" lon="0.086231">
        <time>1970-01-01T00:00:00+00:00</time>
        <ele>286.0</ele>
      </trkpt>
      <trkpt lat="43.264442" lon="0.086302">
        <time>1970-01-01T00:00:00+00:00</time>
        <ele>287.0</ele>
      </trkpt>
      <trkpt lat="43.264643" lon="0.08627">
        <time>1970-01-01T00:00:00+00:00</time>
        <ele>287.0</ele>
      </trkpt>
      <trkpt lat="43.264705" lon="0.086282">
        <time>1970-01-01T00:00:00+00:00</time>
        <ele>287.0</ele>
      </trkpt>
      <trkpt lat="43.26474" lon="0.086329">
        <time>1970-01-01T00:00:00+00:00</time>
        <ele>287.0</ele>
      </trkpt>
      <trkpt lat="43.264772" lon="0.08618">
        <time>1970-01-01T00:00:00+00:00</time>
        <ele>287.0</ele>
      </trkpt>
      <trkpt lat="43.264885" lon="0.086018">
        <time>1970-01-01T00:00:00+00:00</time>
        <ele>287.0</ele>
      </trkpt>
      <trkpt lat="43.265096" lon="0.08587">
        <time>1970-01-01T00:00:00+00:00</time>
        <ele>287.0</ele>
      </trkpt>
      <trkpt lat="43.265203" lon="0.085805">
        <time>1970-01-01T00:00:00+00:00</time>
        <ele>286.0</ele>
      </trkpt>
      <trkpt lat="43.266078" lon="0.085452">
        <time>1970-01-01T00:00:00+00:00</time>
        <ele>286.0</ele>
      </trkpt>
      <trkpt lat="43.266505" lon="0.08536">
        <time>1970-01-01T00:00:00+00:00</time>
        <ele>284.0</ele>
      </trkpt>
      <trkpt lat="43.266956" lon="0.085191">
        <time>1970-01-01T00:00:00+00:00</time>
        <ele>285.0</ele>
      </trkpt>
      <trkpt lat="43.267068" lon="0.085223">
        <time>1970-01-01T00:00:00+00:00</time>
        <ele>285.0</ele>
      </trkpt>
      <trkpt lat="43.267143" lon="0.085222">
        <time>1970-01-01T00:00:00+00:00</time>
        <ele>285.0</ele>
      </trkpt>
      <trkpt lat="43.267494" lon="0.085129">
        <time>1970-01-01T00:00:00+00:00</time>
        <ele>285.0</ele>
      </trkpt>
      <trkpt lat="43.267957" lon="0.084961">
        <time>1970-01-01T00:00:00+00:00</time>
        <ele>284.0</ele>
      </trkpt>
      <trkpt lat="43.268217" lon="0.084798">
        <time>1970-01-01T00:00:00+00:00</time>
        <ele>284.0</ele>
      </trkpt>
      <trkpt lat="43.268295" lon="0.084774">
        <time>1970-01-01T00:00:00+00:00</time>
        <ele>284.0</ele>
      </trkpt>
      <trkpt lat="43.268602" lon="0.084782">
        <time>1970-01-01T00:00:00+00:00</time>
        <ele>284.0</ele>
      </trkpt>
      <trkpt lat="43.269017" lon="0.08471">
        <time>1970-01-01T00:00:00+00:00</time>
        <ele>283.0</ele>
      </trkpt>
      <trkpt lat="43.269328" lon="0.084557">
        <time>1970-01-01T00:00:00+00:00</time>
        <ele>283.0</ele>
      </trkpt>
      <trkpt lat="43.269765" lon="0.084375">
        <time>1970-01-01T00:00:00+00:00</time>
        <ele>282.0</ele>
      </trkpt>
      <trkpt lat="43.270111" lon="0.084167">
        <time>1970-01-01T00:00:00+00:00</time>
        <ele>281.0</ele>
      </trkpt>
      <trkpt lat="43.270221" lon="0.084155">
        <time>1970-01-01T00:00:00+00:00</time>
        <ele>281.0</ele>
      </trkpt>
      <trkpt lat="43.270401" lon="0.084041">
        <time>1970-01-01T00:00:00+00:00</time>
        <ele>280.0</ele>
      </trkpt>
      <trkpt lat="43.270601" lon="0.083976">
        <time>1970-01-01T00:00:00+00:00</time>
        <ele>280.0</ele>
      </trkpt>
      <trkpt lat="43.271023" lon="0.083788">
        <time>1970-01-01T00:00:00+00:00</time>
        <ele>280.0</ele>
      </trkpt>
      <trkpt lat="43.271449" lon="0.083556">
        <time>1970-01-01T00:00:00+00:00</time>
        <ele>279.0</ele>
      </trkpt>
      <trkpt lat="43.271636" lon="0.083519">
        <time>1970-01-01T00:00:00+00:00</time>
        <ele>279.0</ele>
      </trkpt>
      <trkpt lat="43.271818" lon="0.083537">
        <time>1970-01-01T00:00:00+00:00</time>
        <ele>279.0</ele>
      </trkpt>
      <trkpt lat="43.272259" lon="0.083778">
        <time>1970-01-01T00:00:00+00:00</time>
        <ele>280.0</ele>
      </trkpt>
      <trkpt lat="43.272726" lon="0.083925">
        <time>1970-01-01T00:00:00+00:00</time>
        <ele>281.0</ele>
      </trkpt>
      <trkpt lat="43.273368" lon="0.083909">
        <time>1970-01-01T00:00:00+00:00</time>
        <ele>280.0</ele>
      </trkpt>
      <trkpt lat="43.274288" lon="0.083783">
        <time>1970-01-01T00:00:00+00:00</time>
        <ele>280.0</ele>
      </trkpt>
      <trkpt lat="43.274771" lon="0.083829">
        <time>1970-01-01T00:00:00+00:00</time>
        <ele>280.0</ele>
      </trkpt>
      <trkpt lat="43.275541" lon="0.083996">
        <time>1970-01-01T00:00:00+00:00</time>
        <ele>278.0</ele>
      </trkpt>
      <trkpt lat="43.275946" lon="0.084155">
        <time>1970-01-01T00:00:00+00:00</time>
        <ele>278.0</ele>
      </trkpt>
      <trkpt lat="43.276085" lon="0.08417">
        <time>1970-01-01T00:00:00+00:00</time>
        <ele>277.0</ele>
      </trkpt>
      <trkpt lat="43.276466" lon="0.084116">
        <time>1970-01-01T00:00:00+00:00</time>
        <ele>277.0</ele>
      </trkpt>
      <trkpt lat="43.276534" lon="0.084084">
        <time>1970-01-01T00:00:00+00:00</time>
        <ele>277.0</ele>
      </trkpt>
      <trkpt lat="43.27654" lon="0.084673">
        <time>1970-01-01T00:00:00+00:00</time>
        <ele>278.0</ele>
      </trkpt>
      <trkpt lat="43.276745" lon="0.084708">
        <time>1970-01-01T00:00:00+00:00</time>
        <ele>278.0</ele>
      </trkpt>
      <trkpt lat="43.276907" lon="0.084771">
        <time>1970-01-01T00:00:00+00:00</time>
        <ele>278.0</ele>
      </trkpt>
      <trkpt lat="43.276994" lon="0.084821">
        <time>1970-01-01T00:00:00+00:00</time>
        <ele>277.0</ele>
      </trkpt>
    </trkseg>
  </trk>
</gpx>
